This demonstration page uses our WeatherBlox Daily Observations layout. Learn more.

Left ArrowRight Arrow

34.16533, -84.80231

Hourly Observations for September 8, 2022

Temp ( °F °C ) Dew Point ( °F °C ) Humidity (%) Winds ( mph kmh ) Pressure ( in mb ) Visibility ( mi km ) Precip ( " mm )
12:15 am 00:15 Clear 72 22 66 19 83 83 Calm 29.91 1013 10 16 0.00 0.00
12:35 am 00:35 Clear 72 22 66 19 83 83 Calm 29.90 1012 10 16 0.00 0.00
12:55 am 00:55 Clear 72 22 66 19 83 83 Calm 29.90 1012 10 16 0.00 0.00
1:15 am 01:15 Clear 70 21 64 18 83 83 Calm 29.90 1013 10 16 0.00 0.00
1:35 am 01:35 Clear 70 21 64 18 83 83 Calm 29.90 1013 10 16 0.00 0.00
1:55 am 01:55 Clear 70 21 64 18 83 83 Calm 29.89 1012 10 16 0.00 0.00
2:15 am 02:15 Clear 68 20 64 18 88 88 Calm 29.89 1012 10 16 0.00 0.00
2:35 am 02:35 Clear 68 20 64 18 88 88 Calm 29.88 1012 10 16 0.00 0.00
2:55 am 02:55 Clear 68 20 64 18 88 88 Calm 29.88 1012 10 16 0.00 0.00
3:15 am 03:15 Clear 68 20 64 18 88 88 Calm 29.88 1012 10 16 0.00 0.00
3:35 am 03:35 Clear 68 20 64 18 88 88 Calm 29.88 1012 10 16 0.00 0.00
3:55 am 03:55 Clear 68 20 64 18 88 88 Calm 29.87 1012 10 16 0.00 0.00
4:15 am 04:15 Clear 66 19 64 18 94 94 Calm 29.88 1012 10 16 0.00 0.00
4:35 am 04:35 Clear 66 19 64 18 94 94 Calm 29.88 1012 10 16 0.00 0.00
4:55 am 04:55 Mostly Clear 66 19 64 18 94 94 Calm 29.88 1012 10 16 0.00 0.00
5:15 am 05:15 Mostly Clear 66 19 64 18 94 94 Calm 29.86 1011 10 16 0.00 0.00
5:35 am 05:35 Mostly Cloudy 66 19 64 18 94 94 Calm 29.88 1012 10 16 0.00 0.00
5:55 am 05:55 Cloudy 66 19 64 18 94 94 Calm 29.88 1012 10 16 0.00 0.00
6:15 am 06:15 Cloudy 66 19 64 18 94 94 Calm 29.88 1012 10 16 0.00 0.00
6:35 am 06:35 Cloudy 66 19 64 18 94 94 Calm 29.88 1012 10 16 0.00 0.00
6:55 am 06:55 Cloudy 66 19 64 18 94 94 Calm 29.88 1012 10 16 0.00 0.00
7:15 am 07:15 Partly Cloudy 66 19 64 18 94 94 Calm 29.88 1012 10 16 0.00 0.00
7:35 am 07:35 Sunny 66 19 64 18 94 94 Calm 29.88 1012 10 16 0.00 0.00
7:55 am 07:55 Sunny 66 19 64 18 94 94 Calm 29.88 1012 10 16 0.00 0.00
8:15 am 08:15 Sunny 66 19 64 18 94 94 Calm 29.88 1012 10 16 0.00 0.00
8:35 am 08:35 Sunny 68 20 64 18 88 88 Calm 29.88 1012 10 16 0.00 0.00
8:55 am 08:55 Sunny 68 20 64 18 88 88 Calm 29.88 1012 10 16 0.00 0.00
9:15 am 09:15 Sunny 70 21 66 19 88 88 Calm 29.88 1012 10 16 0.00 0.00
9:35 am 09:35 Sunny 72 22 66 19 83 83 Calm 29.88 1012 9 14 0.00 0.00
9:55 am 09:55 Sunny 73 23 66 19 78 78 Calm 29.87 1012 10 16 0.01 0.25
10:15 am 10:15 Sunny 75 24 66 19 74 74 VRB 5 7 29.86 1011 10 16 0.00 0.00
10:35 am 10:35 Sunny 77 25 64 18 65 65 E 12 19 29.87 1011 10 16 0.00 0.00
10:55 am 10:55 Sunny 79 26 66 19 65 65 E 7 11 29.87 1011 10 16 0.00 0.00
11:15 am 11:15 Mostly Sunny 79 26 66 19 65 65 E 8 13 29.87 1011 10 16 0.00 0.00
11:35 am 11:35 Sunny 79 26 66 19 65 65 SE 6 9 29.87 1011 10 16 0.00 0.00
11:55 am 11:55 Mostly Sunny 82 28 66 19 58 58 SSE 5 7 29.86 1011 10 16 0.00 0.00
12:15 pm 12:15 Mostly Sunny 81 27 66 19 62 62 VRB 5 7 29.86 1011 10 16 0.00 0.00
12:35 pm 12:35 Mostly Sunny 82 28 66 19 58 58 ESE 6 9 29.84 1011 10 16 0.00 0.00
12:55 pm 12:55 Partly Cloudy 82 28 66 19 58 58 VRB 7 11 29.84 1011 10 16 0.00 0.00
1:15 pm 13:15 Mostly Cloudy 82 28 66 19 58 58 VRB 5 7 29.84 1011 10 16 0.00 0.00
1:35 pm 13:35 Mostly Cloudy 82 28 66 19 58 58 NE 5 7 29.84 1011 10 16 0.00 0.00
1:55 pm 13:55 Partly Cloudy 82 28 68 20 62 62 Calm 29.83 1010 9 14 0.00 0.00
2:15 pm 14:15 Partly Cloudy 82 28 68 20 62 62 Calm 29.82 1010 10 16 0.00 0.00
2:35 pm 14:35 Partly Cloudy 84 29 68 20 58 58 VRB 5 7 29.81 1009 10 16 0.00 0.00
2:55 pm 14:55 Partly Cloudy 84 29 66 19 55 55 ESE 6 9 29.80 1009 10 16 0.00 0.00
3:15 pm 15:15 Mostly Cloudy 86 30 68 20 55 55 VRB 7 11 29.79 1009 10 16 0.00 0.00
3:35 pm 15:35 Mostly Cloudy 86 30 68 20 55 55 ESE 7 11 29.78 1008 10 16 0.00 0.00
3:55 pm 15:55 Partly Cloudy 86 30 66 19 52 52 VRB 6 9 29.77 1008 10 16 0.00 0.00
4:15 pm 16:15 Sunny 84 29 66 19 55 55 E 6 9 29.77 1008 10 16 0.00 0.00
4:35 pm 16:35 Sunny 86 30 66 19 52 52 SE 6 9 29.76 1008 10 16 0.00 0.00
4:55 pm 16:55 Mostly Sunny 88 31 68 20 52 52 Calm 29.75 1007 10 16 0.00 0.00
5:15 pm 17:15 Sunny 86 30 66 19 52 52 ENE 3 6 29.75 1007 10 16 0.00 0.00
5:35 pm 17:35 Partly Cloudy 81 27 68 20 66 66 NE 12 19 29.76 1008 10 16 0.00 0.00
6:15 pm 18:15 Mostly Cloudy 77 25 68 20 74 74 N 7 11 29.77 1008 10 16 0.00 0.00
6:35 pm 18:35 Partly Cloudy 77 25 66 19 69 69 NNE 9 15 29.77 1008 10 16 0.00 0.00
6:55 pm 18:55 Mostly Cloudy 77 25 66 19 69 69 NNE 7 11 29.77 1008 10 16 0.00 0.00
7:15 pm 19:15 Partly Cloudy 77 25 66 19 69 69 NE 6 9 29.77 1008 10 16 0.00 0.00
7:35 pm 19:35 Sunny 77 25 66 19 69 69 Calm 29.77 1008 10 16 0.00 0.00
7:55 pm 19:55 Mostly Sunny 77 25 66 19 69 69 Calm 29.78 1008 10 16 0.00 0.00
8:15 pm 20:15 Clear 77 25 66 19 69 69 Calm 29.78 1008 10 16 0.00 0.00
8:35 pm 20:35 Mostly Cloudy 75 24 66 19 74 74 Calm 29.79 1009 10 16 0.00 0.00
8:55 pm 20:55 Mostly Cloudy 75 24 68 20 78 78 Calm 29.79 1009 10 16 0.00 0.00
9:15 pm 21:15 Mostly Cloudy 75 24 68 20 78 78 Calm 29.80 1009 10 16 0.00 0.00
9:35 pm 21:35 Partly Cloudy 75 24 68 20 78 78 Calm 29.81 1010 10 16 0.00 0.00
9:55 pm 21:55 Mostly Clear 73 23 68 20 83 83 Calm 29.82 1010 10 16 0.00 0.00
10:15 pm 22:15 Partly Cloudy 73 23 68 20 83 83 Calm 29.82 1010 10 16 0.00 0.00
10:35 pm 22:35 Mostly Cloudy 73 23 68 20 83 83 Calm 29.82 1010 10 16 0.00 0.00
10:55 pm 22:55 Partly Cloudy 73 23 68 20 83 83 Calm 29.84 1010 10 16 0.00 0.00

Powered by AerisWeather